Regional Weather Roundup
Issued by NWS

Home | Current Version | Previous Version | Graphics & Text | Print | Product List | Glossary Off
Versions: 1 2 3 4 5 6 7 8 9 10 11 12 13 14 15 16 17 18 19 20 21 22 23 24 25 26 27 28 29 30 31 32 33 34 35 36 37 38 39 40 41 42 43 44 45 46 47 48 49 50

000
ASUS43 KDTX 291901
RWRMI
MICHIGAN HOURLY REGIONAL WEATHER ROUNDUP
NATIONAL WEATHER SERVICE DETROIT/PONTIAC MI
300 PM EDT SAT AUG 29 2015

NOTE: "FAIR" INDICATES FEW OR NO CLOUDS BELOW 12,000 FEET WITH NO
SIGNIFICANT WEATHER AND/OR OBSTRUCTION TO VISIBILITY.

MIZ047>049-052>055-059>063-066>070-074>076-081>083-292000-
SOUTHEAST LOWER MICHIGAN

CITY           SKY/WX    TMP DP  RH WIND       PRES   REMARKS
ADRIAN         LGT RAIN  75  64  68 CALM      30.09S
ALMA           CLOUDY    67  64  89 CALM      30.11S
ANN ARBOR      CLOUDY    75  63  66 CALM      30.09S
BAD AXE        CLOUDY    65  62  90 E3        30.12F
CARO           CLOUDY    68  64  88 E5        30.11F
DETROIT CITY   LGT RAIN  74  65  73 NE6       30.10S
DETROIT        CLOUDY    76  61  59 SE8       30.10S
FLINT          CLOUDY    73  64  73 SE5       30.10F
GROSSE ILE     DRIZZLE   72  66  83 SE5       30.08F
HILLSDALE      CLOUDY    74  67  77 CALM      30.09S
HOWELL         CLOUDY    70  64  81 E3        30.10F

CITY           SKY/WX    TMP DP  RH WIND       PRES   REMARKS
JACKSON        LGT RAIN  69  65  86 NE5       30.10S
LAMBERTVILLE   CLOUDY    79  63  57 S3        30.08F
LANSING        CLOUDY    69  63  81 E5        30.10F
LAPEER         CLOUDY    69  60  73 CALM      30.11F
MASON          CLOUDY    69  63  82 CALM      30.10F
MONROE         CLOUDY    74  62  65 E7        30.07F
MT. CLEMENS    LGT RAIN  72  63  73 NE5       30.09F
PONTIAC        CLOUDY    70  66  87 E5        30.10F
PORT HOPE        N/A     66  61  84 SE5       30.12F
PORT HURON     DRIZZLE   72  66  83 CALM      30.11F
TRI CITIES     CLOUDY    68  64  87 E3        30.11F
MIDLAND        CLOUDY    68  62  82 CALM      30.10F
TROY           DRIZZLE   73  65  76 N5        30.12S
SAGINAW HB     DRIZZLE   68  64  88 E3        30.10F
$$
MIZ043>046-050>051-056>058-064>065-071>073-077>080-292000-
SOUTHWEST LOWER MICHIGAN

CITY           SKY/WX    TMP DP  RH WIND       PRES   REMARKS
BATTLE CREEK   CLOUDY    69  64  84 E7        30.08F
BENTON HARBOR  CLOUDY    68  65  90 E5        30.04S
BIG RAPIDS     CLOUDY    65  62  90 SE3       30.09F
COLDWATER      LGT RAIN  72  67  85 CALM      30.07F
FREMONT        CLOUDY    65  64  95 E3        30.08S
HOLLAND        CLOUDY    67  63  87 E7        30.07F
GRAND RAPIDS   LGT RAIN  66  64  93 NE6       30.09S
IONIA          CLOUDY    67  64  89 N6        30.09S
KALAMAZOO      CLOUDY    69  63  81 VRB5      30.08S
LUDINGTON      CLOUDY    71  64  80 SE6       30.08S
MARSHALL       CLOUDY    69  65  85 E3        30.08F
MOUNT PLEASANT CLOUDY    68  64  87 E3        30.10F
MUSKEGON       CLOUDY    68  62  81 E8        30.07F
SOUTH HAVEN    CLOUDY    67  64  89 E8        30.05S
$$
MIZ016>042-292000-
NORTHERN LOWER MICHIGAN

CITY           SKY/WX    TMP DP  RH WIND       PRES   REMARKS
ALPENA         CLOUDY    69  61  75 S9        30.11S
BEAVER ISLAND  MOSUNNY   70  61  71 SW10      30.07F
BELLAIRE       CLOUDY    71  60  67 S5        30.08F
CADILLAC       CLOUDY    67  61  79 S5        30.10S
CHARLEVOIX     CLOUDY    69  61  76 S6        30.10F
FRANKFORT      MOSUNNY   73  63  69 W7        30.07F
GAYLORD        CLOUDY    70  59  68 S10       30.10S
GRAYLING       PTSUNNY   69  60  71 S10       30.11F
HARBOR SPRINGS CLOUDY    68  61  78 CALM      30.08F
HOUGHTON LAKE  CLOUDY    67  60  78 S7        30.11F
MANISTEE       MOSUNNY   70  57  64 SE7       30.07F
OSCODA         CLOUDY    64  57  76 SE3       30.12F
PELLSTON       CLOUDY    69  60  73 VRB6      30.08F
ROGERS CITY    CLOUDY    72  62  70 S3        30.10S
TRAVERSE CITY  CLOUDY    72  61  68 SE5       30.06F
$$
MIZ007>008-015-292000-
EASTERN UPPER MICHIGAN

CITY           SKY/WX    TMP DP  RH WIND       PRES   REMARKS
KINROSS        CLOUDY    70  61  73 SW9       30.06F
MACKINAC ISLAN CLOUDY    67  60  77 W9        30.07F
NEWBERRY       PTSUNNY   73  60  64 S9        30.04S
S. S. MARIE    CLOUDY    69  61  75 NW3       30.05F
MUNISING         N/A     78  60  53 SW12      30.01F
$$
MIZ004>006-011>014-085-292000-
CENTRAL UPPER MICHIGAN

CITY           SKY/WX    TMP DP  RH WIND       PRES   REMARKS
MANISTIQUE     PTSUNNY   68  62  80 S13       30.05S
ESCANABA       CLOUDY    68  61  77 S15G22    30.05S
MENOMINEE      CLOUDY    66  59  77 SW6       30.06F
SAWYER-GWINN   SUNNY     75  57  53 SW8       30.04F
$$
MIZ001>003-009>011-084-292000-
WESTERN UPPER MICHIGAN

CITY           SKY/WX    TMP DP  RH WIND       PRES   REMARKS
IRON MOUNTAIN  CLOUDY    73  59  61 VRB3      30.04F
HOUGHTON       CLOUDY    70  57  63 W13       30.02S
COPPER HARBOR    N/A     71  60  68 N15       29.99S
IRONWOOD       CLOUDY    73  63  68 W5        30.01S
$$

ABBREVIATIONS USED IN REMARKS
   TC - TEMPERATURE IN CELSIUS
  WCI - WIND CHILL INDEX
   HX - HEAT INDEX
  VSB - VISIBILITY



USA.gov is the U.S. government's official web portal to all federal, state and local government web resources and services.